WMT3685 LIBP-LATI

Flight info

Callsign WMT3685
Flight time 0h 50m
Altitude 31000
Route ERPOG DCT GARGA DCT VAKSU DCT PETAK
Aircraft A321/M-SDE3FGHIRWY/LB1

Departure

Time 2026-04-23 05:46
Airport Abruzzo Airport (LIBP)

Arrival

Time 2026-04-23 06:37
Airport Tirana International Airport Mother Teresa (LATI)
Time Latitude Longitude Altitude Speed Heading
2026-04-23 05:17 42.43063 14.18758 46 ft 0 kts 127°
2026-04-23 05:37 42.43064 14.18756 45 ft 2 kts 127°
2026-04-23 05:37 42.43081 14.18731 45 ft 4 kts 143°
2026-04-23 05:37 42.43104 14.18715 45 ft 4 kts 178°
2026-04-23 05:37 42.43124 14.18722 45 ft 1 kts 217°
2026-04-23 05:38 42.43127 14.18725 45 ft 0 kts 217°
2026-04-23 05:41 42.43124 14.18722 43 ft 1 kts 217°
2026-04-23 05:41 42.43098 14.18695 45 ft 7 kts 217°
2026-04-23 05:41 42.43053 14.18649 45 ft 9 kts 217°
2026-04-23 05:41 42.43022 14.18577 45 ft 10 kts 260°
2026-04-23 05:42 42.43009 14.18482 45 ft 11 kts 249°
2026-04-23 05:42 42.42955 14.18406 43 ft 12 kts 218°
2026-04-23 05:42 42.42886 14.18335 45 ft 13 kts 217°
2026-04-23 05:42 42.42810 14.18257 45 ft 14 kts 217°
2026-04-23 05:43 42.42731 14.18175 44 ft 15 kts 217°
2026-04-23 05:43 42.42645 14.18086 45 ft 16 kts 217°
2026-04-23 05:43 42.42554 14.17991 45 ft 17 kts 217°
2026-04-23 05:43 42.42458 14.17892 45 ft 18 kts 217°
2026-04-23 05:44 42.42358 14.17789 43 ft 15 kts 217°
2026-04-23 05:44 42.42298 14.17727 44 ft 9 kts 219°
2026-04-23 05:44 42.42275 14.17653 45 ft 9 kts 268°
2026-04-23 05:44 42.42270 14.17563 45 ft 8 kts 265°
2026-04-23 05:45 42.42285 14.17492 45 ft 9 kts 305°
2026-04-23 05:45 42.42336 14.17481 45 ft 8 kts 32°
2026-04-23 05:45 42.42392 14.17536 45 ft 17 kts 37°
2026-04-23 05:45 42.42689 14.17845 48 ft 91 kts 37°
2026-04-23 05:46 42.43375 14.18555 48 ft 155 kts 37°
2026-04-23 05:46 42.44301 14.19504 526 ft 165 kts 37°
2026-04-23 05:46 42.45213 14.20442 1337 ft 164 kts 34°
2026-04-23 05:46 42.46133 14.21376 2031 ft 172 kts 33°
2026-04-23 05:47 42.47117 14.22381 2402 ft 188 kts 35°
2026-04-23 05:47 42.48211 14.23520 2594 ft 210 kts 34°
2026-04-23 05:47 42.49431 14.24854 2767 ft 238 kts 43°
2026-04-23 05:47 42.50204 14.26900 3326 ft 254 kts 78°
2026-04-23 05:48 42.50040 14.29286 4075 ft 263 kts 101°
2026-04-23 05:48 42.49459 14.31675 4838 ft 269 kts 107°
2026-04-23 05:48 42.48779 14.34052 5604 ft 273 kts 107°
2026-04-23 05:48 42.48124 14.36479 6403 ft 275 kts 105°
2026-04-23 05:49 42.47527 14.38945 7139 ft 277 kts 103°
2026-04-23 05:49 42.46988 14.41459 7872 ft 278 kts 101°
2026-04-23 05:49 42.46494 14.43998 8626 ft 279 kts 100°
2026-04-23 05:49 42.46020 14.46549 9393 ft 280 kts 99°
2026-04-23 05:50 42.45555 14.49117 10164 ft 282 kts 98°
2026-04-23 05:50 42.45160 14.51738 10616 ft 291 kts 91°
2026-04-23 05:50 42.45158 14.54556 10767 ft 309 kts 81°
2026-04-23 05:50 42.45333 14.57548 11013 ft 326 kts 82°
2026-04-23 05:51 42.45490 14.60648 11547 ft 333 kts 82°
2026-04-23 05:51 42.45632 14.63794 12151 ft 338 kts 83°
2026-04-23 05:51 42.45763 14.66994 12745 ft 342 kts 83°
2026-04-23 05:51 42.45889 14.70187 13336 ft 346 kts 83°
2026-04-23 05:52 42.46020 14.73459 13910 ft 350 kts 83°
2026-04-23 05:52 42.46154 14.76775 14450 ft 355 kts 83°
2026-04-23 05:52 42.46289 14.80137 14992 ft 359 kts 83°
2026-04-23 05:52 42.46426 14.83528 15568 ft 361 kts 83°
2026-04-23 05:53 42.46563 14.86934 16180 ft 363 kts 83°
2026-04-23 05:53 42.46700 14.90364 16743 ft 366 kts 83°
2026-04-23 05:53 42.46835 14.93825 17323 ft 370 kts 83°
2026-04-23 05:53 42.46970 14.97324 17878 ft 374 kts 83°
2026-04-23 05:54 42.47105 15.00862 18441 ft 378 kts 83°
2026-04-23 05:54 42.47241 15.04432 18929 ft 381 kts 83°
2026-04-23 05:54 42.47379 15.08033 19423 ft 384 kts 83°
2026-04-23 05:54 42.47515 15.11660 19939 ft 387 kts 83°
2026-04-23 05:55 42.47652 15.15312 20459 ft 390 kts 83°
2026-04-23 05:55 42.47687 15.19013 20969 ft 396 kts 90°
2026-04-23 05:55 42.47267 15.22732 21468 ft 403 kts 100°
2026-04-23 05:55 42.46455 15.26393 21969 ft 408 kts 103°
2026-04-23 05:56 42.45607 15.30076 22476 ft 411 kts 103°
2026-04-23 05:56 42.44757 15.33782 22942 ft 414 kts 103°
2026-04-23 05:56 42.43903 15.37514 23419 ft 417 kts 103°
2026-04-23 05:56 42.43043 15.41272 23842 ft 419 kts 103°
2026-04-23 05:57 42.42187 15.45007 24212 ft 422 kts 103°
2026-04-23 05:57 42.41318 15.48805 24570 ft 424 kts 103°
2026-04-23 05:57 42.40441 15.52628 24918 ft 427 kts 103°
2026-04-23 05:57 42.39554 15.56484 25270 ft 430 kts 103°
2026-04-23 05:58 42.38662 15.60358 25618 ft 432 kts 103°
2026-04-23 05:58 42.37763 15.64245 25984 ft 435 kts 104°
2026-04-23 05:58 42.36852 15.68170 26331 ft 437 kts 104°
2026-04-23 05:58 42.35936 15.72103 26670 ft 440 kts 104°
2026-04-23 05:59 42.35017 15.76051 26989 ft 442 kts 104°
2026-04-23 05:59 42.34090 15.80027 27324 ft 444 kts 104°
2026-04-23 05:59 42.33157 15.84022 27647 ft 447 kts 104°
2026-04-23 05:59 42.32220 15.88038 27975 ft 449 kts 104°
2026-04-23 06:00 42.31291 15.92028 28271 ft 452 kts 104°
2026-04-23 06:00 42.30342 15.96108 28434 ft 458 kts 104°
2026-04-23 06:00 42.29382 16.00228 28638 ft 463 kts 104°
2026-04-23 06:00 42.28400 16.04385 28894 ft 466 kts 105°
2026-04-23 06:01 42.27406 16.08565 29177 ft 469 kts 105°
2026-04-23 06:01 42.26592 16.12819 29456 ft 468 kts 97°
2026-04-23 06:01 42.26146 16.17163 29732 ft 468 kts 94°
2026-04-23 06:01 42.25737 16.21534 30018 ft 471 kts 94°
2026-04-23 06:02 42.25323 16.25934 30295 ft 473 kts 94°
2026-04-23 06:02 42.24906 16.30346 30540 ft 475 kts 94°
2026-04-23 06:02 42.24482 16.34780 30811 ft 476 kts 94°
2026-04-23 06:02 42.24054 16.39208 31102 ft 477 kts 94°
2026-04-23 06:03 42.23624 16.43623 31172 ft 469 kts 94°
2026-04-23 06:03 42.23199 16.47928 31174 ft 458 kts 94°
2026-04-23 06:03 42.22783 16.52160 31171 ft 452 kts 94°
2026-04-23 06:04 42.21967 16.60496 31175 ft 446 kts 94°
2026-04-23 06:04 42.21151 16.68785 31165 ft 446 kts 94°
2026-04-23 06:05 42.20326 16.77081 31171 ft 447 kts 94°
2026-04-23 06:05 42.19505 16.85391 31155 ft 447 kts 94°
2026-04-23 06:06 42.18681 16.93649 31165 ft 448 kts 94°
2026-04-23 06:06 42.17836 17.01961 31170 ft 448 kts 95°
2026-04-23 06:07 42.16976 17.10289 31174 ft 448 kts 95°
2026-04-23 06:07 42.16112 17.18611 31170 ft 448 kts 95°
2026-04-23 06:08 42.15251 17.26922 31166 ft 448 kts 95°
2026-04-23 06:08 42.14381 17.35224 31158 ft 447 kts 95°
2026-04-23 06:09 42.13508 17.43518 31164 ft 447 kts 95°
2026-04-23 06:09 42.12633 17.51809 31162 ft 447 kts 95°
2026-04-23 06:10 42.11752 17.60035 31160 ft 447 kts 95°
2026-04-23 06:10 42.10851 17.68368 31149 ft 446 kts 95°
2026-04-23 06:11 42.09959 17.76594 31148 ft 446 kts 96°
2026-04-23 06:11 42.09064 17.84825 30586 ft 441 kts 96°
2026-04-23 06:11 42.08615 17.88900 30087 ft 438 kts 96°
2026-04-23 06:12 42.08169 17.92935 29573 ft 433 kts 96°
2026-04-23 06:12 42.07728 17.96919 29094 ft 428 kts 96°
2026-04-23 06:12 42.06855 18.04748 28205 ft 418 kts 96°
2026-04-23 06:13 42.06425 18.08594 27776 ft 414 kts 96°
2026-04-23 06:13 42.05999 18.12401 27358 ft 409 kts 96°
2026-04-23 06:13 42.05577 18.16166 26935 ft 405 kts 95°
2026-04-23 06:13 42.05158 18.19906 26528 ft 402 kts 95°
2026-04-23 06:14 42.04741 18.23615 26121 ft 399 kts 95°
2026-04-23 06:14 42.04327 18.27295 25710 ft 397 kts 96°
2026-04-23 06:14 42.03909 18.30964 25292 ft 395 kts 96°
2026-04-23 06:14 42.03489 18.34605 24871 ft 393 kts 96°
2026-04-23 06:15 42.03078 18.38190 24448 ft 392 kts 95°
2026-04-23 06:15 42.02665 18.41802 24023 ft 390 kts 95°
2026-04-23 06:15 42.02251 18.45404 23561 ft 390 kts 96°
2026-04-23 06:15 42.01838 18.48994 23090 ft 387 kts 96°
2026-04-23 06:16 42.01348 18.52539 22660 ft 385 kts 103°
2026-04-23 06:16 42.00455 18.55919 22237 ft 383 kts 110°
2026-04-23 06:16 41.99458 18.59224 21808 ft 379 kts 109°
2026-04-23 06:16 41.98476 18.62496 21387 ft 375 kts 109°
2026-04-23 06:17 41.97505 18.65736 20967 ft 372 kts 109°
2026-04-23 06:17 41.96541 18.68943 20554 ft 369 kts 109°
2026-04-23 06:17 41.95583 18.72120 20136 ft 366 kts 109°
2026-04-23 06:17 41.94629 18.75284 19729 ft 363 kts 109°
2026-04-23 06:18 41.93688 18.78404 19322 ft 359 kts 109°
2026-04-23 06:18 41.92752 18.81501 18915 ft 357 kts 109°
2026-04-23 06:18 41.91824 18.84570 18515 ft 354 kts 109°
2026-04-23 06:18 41.90898 18.87622 18070 ft 351 kts 109°
2026-04-23 06:19 41.89984 18.90630 17676 ft 347 kts 110°
2026-04-23 06:19 41.89090 18.93572 17286 ft 343 kts 109°
2026-04-23 06:19 41.88196 18.96513 16942 ft 336 kts 109°
2026-04-23 06:19 41.87330 18.99359 16551 ft 322 kts 109°
2026-04-23 06:20 41.86502 19.02075 16174 ft 308 kts 109°
2026-04-23 06:20 41.85701 19.04706 15817 ft 306 kts 109°
2026-04-23 06:20 41.84888 19.07383 15459 ft 314 kts 109°
2026-04-23 06:20 41.84059 19.10110 15085 ft 316 kts 109°
2026-04-23 06:21 41.83228 19.12831 14694 ft 314 kts 109°
2026-04-23 06:21 41.82406 19.15531 14312 ft 311 kts 109°
2026-04-23 06:21 41.81589 19.18204 13944 ft 309 kts 109°
2026-04-23 06:21 41.80774 19.20856 13544 ft 307 kts 110°
2026-04-23 06:22 41.79961 19.23487 13165 ft 305 kts 110°
2026-04-23 06:22 41.79426 19.25218 12943 ft 303 kts 110°
2026-04-23 06:22 41.78623 19.27824 12580 ft 301 kts 110°
2026-04-23 06:22 41.77810 19.30402 12209 ft 301 kts 112°
2026-04-23 06:23 41.76680 19.32790 11739 ft 305 kts 126°
2026-04-23 06:23 41.75333 19.34951 11127 ft 302 kts 126°
2026-04-23 06:23 41.73992 19.37087 10559 ft 297 kts 126°
2026-04-23 06:23 41.72659 19.39200 9879 ft 296 kts 128°
2026-04-23 06:24 41.71351 19.41274 9297 ft 289 kts 127°
2026-04-23 06:24 41.70064 19.43317 8763 ft 285 kts 127°
2026-04-23 06:24 41.68792 19.45337 8228 ft 281 kts 124°
2026-04-23 06:24 41.67556 19.47306 7707 ft 277 kts 127°
2026-04-23 06:25 41.66329 19.49261 7181 ft 273 kts 127°
2026-04-23 06:25 41.65113 19.51188 6649 ft 269 kts 127°
2026-04-23 06:25 41.63909 19.53094 6146 ft 266 kts 127°
2026-04-23 06:25 41.62715 19.54964 6044 ft 265 kts 130°
2026-04-23 06:26 41.61227 19.56438 6048 ft 271 kts 155°
2026-04-23 06:26 41.59369 19.56906 6051 ft 278 kts 182°
2026-04-23 06:26 41.57508 19.56171 6050 ft 284 kts 210°
2026-04-23 06:26 41.56097 19.54353 6046 ft 285 kts 240°
2026-04-23 06:27 41.55472 19.51870 6049 ft 284 kts 265°
2026-04-23 06:27 41.55267 19.49233 6045 ft 285 kts 265°
2026-04-23 06:27 41.55079 19.46601 6051 ft 285 kts 266°
2026-04-23 06:27 41.54947 19.43976 6051 ft 279 kts 277°
2026-04-23 06:28 41.55460 19.41569 6055 ft 271 kts 304°
2026-04-23 06:28 41.56698 19.39742 6049 ft 265 kts 330°
2026-04-23 06:28 41.58389 19.38854 6063 ft 259 kts 358°
2026-04-23 06:28 41.60146 19.39039 6070 ft 253 kts 21°
2026-04-23 06:29 41.61639 19.40168 6053 ft 241 kts 44°
2026-04-23 06:29 41.62628 19.41964 6056 ft 243 kts 66°
2026-04-23 06:29 41.63042 19.44164 6064 ft 245 kts 80°
2026-04-23 06:29 41.63252 19.46430 6076 ft 245 kts 83°
2026-04-23 06:30 41.63414 19.48720 6065 ft 249 kts 83°
2026-04-23 06:30 41.63566 19.51027 6057 ft 251 kts 84°
2026-04-23 06:30 41.63722 19.53345 6053 ft 250 kts 83°
2026-04-23 06:30 41.63884 19.55696 5663 ft 260 kts 83°
2026-04-23 06:31 41.64056 19.58099 5318 ft 258 kts 83°
2026-04-23 06:31 41.64229 19.60470 5072 ft 252 kts 83°
2026-04-23 06:31 41.64395 19.62709 4937 ft 230 kts 83°
2026-04-23 06:31 41.64551 19.64798 4865 ft 220 kts 83°
2026-04-23 06:32 41.64587 19.66746 4739 ft 209 kts 99°
2026-04-23 06:32 41.63905 19.68428 4597 ft 210 kts 133°
2026-04-23 06:32 41.62582 19.69277 4259 ft 219 kts 167°
2026-04-23 06:32 41.61058 19.69472 3972 ft 222 kts 171°
2026-04-23 06:33 41.59502 19.69659 3535 ft 226 kts 170°
2026-04-23 06:33 41.57939 19.69861 3186 ft 226 kts 169°
2026-04-23 06:33 41.56385 19.70069 2884 ft 225 kts 170°
2026-04-23 06:33 41.54828 19.70276 2567 ft 223 kts 170°
2026-04-23 06:34 41.53290 19.70482 2282 ft 219 kts 170°
2026-04-23 06:34 41.51816 19.70677 1977 ft 206 kts 170°
2026-04-23 06:34 41.50433 19.70861 1701 ft 192 kts 172°
2026-04-23 06:34 41.49168 19.71031 1447 ft 175 kts 172°
2026-04-23 06:35 41.48018 19.71185 1236 ft 160 kts 171°
2026-04-23 06:35 41.46927 19.71324 994 ft 156 kts 172°
2026-04-23 06:35 41.45849 19.71467 768 ft 155 kts 174°
2026-04-23 06:35 41.44780 19.71613 598 ft 154 kts 175°
2026-04-23 06:36 41.43736 19.71756 363 ft 152 kts 175°
2026-04-23 06:36 41.42691 19.71897 168 ft 150 kts 176°
2026-04-23 06:36 41.41721 19.72022 123 ft 123 kts 174°
2026-04-23 06:36 41.41040 19.72114 133 ft 74 kts 174°
2026-04-23 06:37 41.40772 19.72151 134 ft 14 kts 174°
2026-04-23 06:37 41.40708 19.72153 134 ft 7 kts 194°
2026-04-23 06:37 41.40680 19.72093 133 ft 9 kts 254°
2026-04-23 06:37 41.40661 19.71996 132 ft 12 kts 257°
2026-04-23 06:38 41.40643 19.71882 132 ft 13 kts 256°
2026-04-23 06:38 41.40639 19.71799 132 ft 8 kts 297°
2026-04-23 06:38 41.40689 19.71769 132 ft 9 kts 353°
2026-04-23 06:38 41.40756 19.71760 132 ft 10 kts 353°
2026-04-23 06:39 41.40833 19.71744 131 ft 12 kts 349°
2026-04-23 06:39 41.40921 19.71721 129 ft 14 kts 351°
2026-04-23 06:39 41.41020 19.71705 131 ft 15 kts 354°
2026-04-23 06:39 41.41131 19.71690 127 ft 17 kts 354°
2026-04-23 06:40 41.41253 19.71674 129 ft 18 kts 354°
2026-04-23 06:40 41.41385 19.71656 123 ft 20 kts 354°
2026-04-23 06:40 41.41528 19.71637 127 ft 21 kts 354°
2026-04-23 06:40 41.41669 19.71619 125 ft 19 kts 354°
2026-04-23 06:41 41.41797 19.71601 123 ft 18 kts 354°
2026-04-23 06:41 41.41881 19.71590 121 ft 10 kts 354°
2026-04-23 06:41 41.41912 19.71567 123 ft 2 kts 277°
2026-04-23 06:41 41.41912 19.71544 122 ft 2 kts 267°
2026-04-23 06:42 41.41911 19.71533 123 ft 1 kts 264°
2026-04-23 06:42 41.41910 19.71525 123 ft 1 kts 264°
2026-04-23 06:42 41.41910 19.71524 123 ft 0 kts 264°